Content
SEND FEEDBACK

Daily
Averages
Monthly
Summary
United States of America

RAPID CITY, SOUTH DAKOTA


Home > North America > United States > South Dakota
Elevation: 3162 feet     Latitude: 44 03N     Longitude: 103 04W

WEATHER
 
SELECT A DAY
Number of Records: 203,316;   Date Range: 1/1/95 - 10/22/14
 
SHARE

PRINT THIS DATA

[ ← Previous Day ]
WEATHER ALMANAC - OCTOBER 25, 2013
[ Next Day → ]
[ °C ]   °F
Weather ElementAverageHighLow
Temperature49.2 °F70 °F (2:52 pm)28.9 °F (6:52 am)
Dewpoint35.3 °F42.1 °F (9:52 am)27 °F (6:52 am)
Humidity63.8 %92 % (2:52 am)27 % (1:52 pm)
Barometer30.13 in30.22 in (1:52 am)30.02 in (2:52 pm)
Wind Speed9.1 mph21.9 mph (9:52 pm)
Weather ElementAverage
Visibility10 mi
Wind DirectionSSE (174.3 °)

Weather ElementTotal
Precipitation---
Heating Degree Days15.6 (Base 65)
Averaged from 23 records on October 25, 2013
WEATHER CONDITIONS BREAKOUT
WIND DIRECTION BREAKOUT
WEATHER BY HOUR - OCTOBER 25, 2013
[ °C ]   °F
Local TimeTemperatureDewpointHumidityBarometerVisibilityWind DirectionWind SpeedGust SpeedPrecipitationEventsConditions
1:52 AM33.1 °F30.0 °F89 %30.22 in10.0 miSE (140°)3.5 mphClear
2:52 AM32.0 °F30.0 °F92 %30.20 in10.0 miCalmClear
3:52 AM32.0 °F30.0 °F92 %30.18 in10.0 miESE (120°)3.5 mphClear
4:52 AM30.0 °F28.0 °F92 %30.17 in10.0 miCalmClear
5:52 AM33.1 °F30.0 °F89 %30.17 in10.0 miCalmClear
6:52 AM28.9 °F27.0 °F92 %30.17 in10.0 miCalmClear
7:52 AM33.1 °F30.0 °F89 %30.16 in10.0 miCalmClear
8:52 AM39.9 °F36.0 °F86 %30.14 in10.0 miCalmClear
9:52 AM48.0 °F42.1 °F80 %30.11 in10.0 miCalmClear
10:52 AM55.9 °F41.0 °F57 %30.09 in10.0 miSE (140°)3.5 mphClear
11:52 AM61.0 °F39.9 °F46 %30.07 in10.0 miSSE (150°)4.6 mphClear
12:52 PM64.0 °F37.9 °F38 %30.05 in10.0 miCalmClear
1:52 PM69.1 °F34.0 °F27 %30.03 in10.0 miNorth (360°)11.5 mphClear
2:52 PM70.0 °F39.0 °F32 %30.02 in10.0 miNNE (20°)12.7 mphClear
3:52 PM69.1 °F36.0 °F30 %30.03 in10.0 miNorth (350°)20.7 mphClear
4:52 PM64.0 °F39.0 °F40 %30.05 in10.0 miNorth (350°)18.4 mphClear
5:52 PM59.0 °F39.0 °F48 %30.08 in10.0 miNNW (340°)13.8 mphClear
6:52 PM55.9 °F39.0 °F53 %30.13 in10.0 miNNW (330°)17.3 mphClear
7:52 PM53.1 °F39.0 °F59 %30.16 in10.0 miNorth (350°)18.4 mphClear
8:52 PM51.1 °F39.0 °F63 %30.16 in10.0 miNNW (340°)17.3 mphClear
9:52 PM52.0 °F37.9 °F59 %30.17 in10.0 miNNW (340°)21.9 mphClear
10:52 PM48.9 °F36.0 °F61 %30.18 in10.0 miNNW (340°)20.7 mphClear
11:52 PM48.9 °F33.1 °F54 %30.18 in10.0 miNNW (340°)20.7 mphClear
Hourly data recorded from KRAP, located miles away from Rapid City, South Dakota







STORIES FROM OUR PARTNERS